Dewpoint
53 53 53 53 53 53 53 54 54 54 54 54 54 55 55 56 56 46 41 36 42 60 63 49 51 46 44 44 44 44 36 33 32 31 30 28 24 27 30 30 31 28 28 38 41
53 53 53 53 53 53 53 53 53 53 53 53 53 54 55 56 48 36 42 57 58 64 46 43 44 44 42 42 42 39 34 33 34 32 30 30 25 24 27 28 31 33 35 39 39
53 53 54 53 53 54 53 53 53 53 53 53 53 54 55 55 43 18 64 63 59 64 34 33 41 44 42 42 40 37 34 33 32 32 31 31 25 24 25 27 32 29 34 36 37
53 53 53 53 53 53 53 52 52 52 52 53 53 54 55 50 10 35 65 65 66 54 34 28 29 34 39 40 39 36 35 34 33 32 31 29 28 26 26 27 30 30 34 34 34
52 52 53 55 54 54 54 54 52 51 52 52 53 53 50 35 27 33 65 64 55 50 33 28 25 26 28 34 37 36 35 34 33 32 29 29 28 27 24 30 31 27 31 35 35
53 51 52 54 55 54 54 53 53 53 53 52 52 53 47 29 24 20 19 32 37 39 32 28 27 26 26 30 34 35 32 31 32 32 29 28 28 27 27 31 25 24 26 27 28
52 52 52 53 53 54 54 53 53 53 53 52 53 49 39 29 26 25 26 21 32 35 32 29 27 27 28 26 26 26 26 28 30 29 26 28 28 26 30 29 29 27 27 28 32
49 51 52 51 51 52 53 54 53 53 53 53 53 48 36 27 30 27 24 20 23 32 35 32 28 26 26 29 26 25 25 26 27 28 26 26 25 28 29 29 32 30 31 32 34
51 50 50 51 51 51 52 52 52 51 52 53 49 44 27 32 27 26 26 23 21 23 32 36 33 26 28 27 24 24 23 24 26 27 26 27 25 28 30 28 32 33 34 33 34
51 51 50 50 50 52 52 51 49 51 48 47 43 35 30 27 21 27 27 25 23 22 23 17 19 20 20 24 23 22 23 24 25 26 24 26 28 28 31 29 30 33 35 36 37
51 52 51 50 50 51 50 41 39 44 43 38 37 28 23 29 31 28 28 27 24 22 16 24 19 17 24 21 25 23 23 24 26 26 25 30 30 31 32 31 31 33 35 38 41
51 52 51 51 49 50 48 39 38 38 35 36 34 32 26 26 24 27 22 25 22 18 16 15 13 14 24 24 24 27 23 23 24 25 31 30 30 31 33 31 31 32 34 37 44
51 52 51 51 50 46 42 39 38 38 36 33 31 31 33 32 27 25 24 17 19 16 14 13 13 14 23 26 25 26 26 24 23 26 26 27 27 29 32 31 32 32 34 41 43
51 51 52 51 44 40 38 39 39 39 31 21 23 26 27 34 33 29 26 19 17 16 14 12 12 15 18 23 24 23 27 25 24 26 25 29 23 28 28 29 30 29 35 41 42
51 51 51 50 41 34 36 37 38 36 19 15 16 23 24 32 30 32 29 24 15 15 15 14 11 13 13 19 21 22 26 24 25 26 26 25 24 25 29 29 29 28 32 42 44
51 51 51 48 46 36 36 39 38 28 19 14 15 17 20 30 30 27 28 27 18 16 17 16 16 13 12 13 19 24 25 25 26 25 25 26 26 23 28 28 25 27 37 42 43
50 50 49 46 41 38 35 40 31 24 15 7 14 15 17 21 28 29 27 24 21 13 16 17 14 14 12 13 15 24 23 22 24 22 24 24 23 24 29 31 24 36 41 42 44
50 50 48 45 44 42 37 37 25 18 20 21 17 14 14 17 22 25 26 23 21 17 15 15 14 14 13 11 16 17 23 21 21 24 22 25 22 24 30 29 30 37 40 42 44
49 45 44 44 43 42 37 28 24 20 17 16 15 15 17 18 21 20 22 22 20 19 16 14 14 17 14 12 14 19 23 23 23 27 22 23 28 31 28 27 28 40 42 42 45
46 44 41 43 43 44 35 29 23 23 19 18 17 16 16 17 22 23 19 20 21 21 20 22 18 16 14 12 14 16 26 24 26 20 20 23 26 30 27 25 35 42 43 45 46
45 40 39 41 46 39 30 28 26 24 23 21 19 18 19 19 19 23 24 23 20 20 19 19 25 23 15 14 11 15 20 25 23 22 22 22 26 31 26 33 38 42 44 44 44
43 35 43 44 36 37 32 28 32 27 28 23 22 20 20 23 23 27 25 27 22 19 17 17 27 21 23 16 15 19 24 26 21 25 24 25 27 28 37 40 40 43 44 45 43
39 39 46 46 30 31 31 29 27 26 26 26 26 25 20 24 31 31 29 29 32 33 19 17 18 24 24 23 20 19 24 24 29 29 27 25 27 33 33 37 42 42 43 43 42
39 32 40 41 39 35 32 28 27 27 25 25 26 27 21 22 28 28 30 29 33 34 46 31 19 16 24 23 22 18 24 23 29 27 25 28 25 33 31 33 40 42 41 41 41
40 35 38 33 34 34 33 30 26 24 24 22 25 26 24 21 24 29 30 30 33 38 34 33 17 25 20 23 24 21 24 24 23 28 24 26 28 30 29 31 39 41 40 40 40
36 37 36 33 33 29 30 28 24 24 24 22 22 25 28 24 27 29 31 33 31 32 31 33 23 19 21 22 20 21 23 23 23 24 27 25 25 31 34 32 38 40 39 39 39
43 44 40 33 32 32 32 31 28 29 28 27 25 24 24 29 32 35 35 34 33 31 29 33 38 24 19 19 21 20 23 23 24 25 23 21 25 30 33 30 34 39 39 38 39
Lifted_Index
12 12 12 12 12 12 12 12 11 11 10 10 10 10 10 9 9 7 6 5 5 5 3 2 2 2 1 0 -0 -0 0 1 1 1 0 0 1 1 1 1 0 0 1 3 3
12 12 12 12 12 12 12 12 12 11 11 10 10 10 10 9 8 6 6 6 6 4 4 3 2 1 1 -0 -0 -0 0 1 1 1 0 0 1 1 1 1 1 1 2 2 3
12 12 12 12 12 12 13 13 13 12 11 11 10 10 9 8 6 5 5 5 5 4 4 4 2 1 -0 -1 -1 -0 0 1 1 1 1 1 1 2 1 1 1 1 2 2 2
12 12 12 11 12 12 12 13 13 12 12 11 10 10 9 8 5 5 4 4 3 3 5 5 3 2 0 -1 -1 -1 -0 1 1 0 0 1 1 2 2 1 1 1 2 2 2
13 13 12 11 11 11 12 12 13 12 12 11 11 10 9 7 6 6 5 4 3 4 5 5 4 3 1 0 -0 -0 -0 0 0 -0 0 1 1 2 2 1 1 1 2 2 2
14 13 13 12 11 11 11 12 12 12 12 12 11 10 9 7 7 7 7 6 5 4 5 5 4 3 3 2 1 0 0 1 0 0 0 1 1 2 1 1 0 1 2 2 2
14 14 14 13 12 11 11 12 12 12 12 12 12 11 10 9 9 8 8 7 6 5 4 4 4 4 4 3 2 2 2 2 1 1 1 1 2 1 1 1 0 1 1 2 2
15 15 14 14 13 13 12 12 13 13 12 12 12 11 11 11 10 8 7 7 6 5 4 3 3 4 4 4 3 3 3 3 2 2 2 1 1 1 0 0 1 1 1 1 1
15 15 15 15 14 14 13 13 13 13 13 12 12 12 11 11 10 8 7 7 7 6 5 4 4 4 5 5 4 4 4 3 3 2 1 1 1 0 0 0 0 0 0 0 0
15 15 16 15 15 14 14 14 13 12 12 12 12 12 11 10 8 8 8 8 7 7 6 5 5 5 5 5 4 4 4 3 2 2 1 1 0 0 0 0 0 0 -0 -0 -0
15 15 15 16 15 15 15 14 12 11 11 11 11 11 10 9 8 8 8 7 7 7 6 6 6 6 6 5 4 4 3 3 2 2 1 0 0 -0 -0 -0 0 -0 -0 -0 0
14 14 14 15 15 15 14 13 12 11 11 11 11 11 10 9 9 8 8 7 6 6 6 6 6 6 6 5 5 4 3 2 2 2 1 0 0 -0 -0 -0 -0 -0 -0 0 1
13 13 13 14 14 14 13 12 11 11 11 10 11 11 10 9 8 8 8 8 7 5 5 6 6 6 6 5 4 4 3 2 2 2 1 0 0 0 0 0 0 -0 0 1 1
11 11 11 12 13 13 11 11 11 10 9 9 9 10 9 8 8 8 8 8 7 6 6 6 6 6 6 5 4 3 3 2 2 1 1 1 1 2 1 1 1 1 1 1 1
7 7 7 8 10 11 10 10 10 8 6 7 8 8 8 7 7 7 7 7 7 7 7 7 6 6 6 5 4 3 2 2 1 1 0 1 1 2 2 1 1 1 1 1 1
4 4 4 5 6 7 8 8 8 7 6 6 7 7 6 6 6 6 6 7 7 7 7 7 7 7 6 5 4 3 2 1 1 0 1 1 1 1 1 1 1 1 1 1 1
3 3 3 3 4 5 5 5 6 8 8 7 6 5 5 5 5 5 5 6 6 6 6 6 7 7 7 6 4 3 1 1 0 0 1 1 1 1 1 1 1 1 1 1 1
3 3 3 3 3 3 3 4 6 9 9 7 5 4 4 3 3 3 4 5 6 5 4 3 4 6 6 6 4 3 1 1 0 0 1 1 1 1 1 1 1 1 1 1 0
3 3 2 2 2 2 3 4 6 8 8 6 5 4 3 2 2 2 3 4 5 5 4 3 3 4 5 5 4 3 1 1 0 0 1 1 1 0 1 1 1 1 0 0 0
2 2 2 2 2 3 4 4 5 5 5 5 6 5 4 3 2 2 3 4 5 5 5 4 3 3 3 4 3 2 1 0 0 0 0 1 1 0 0 1 1 0 0 -0 -0
2 2 2 2 2 3 4 4 3 2 2 3 5 7 6 5 4 3 4 5 5 5 5 5 4 3 3 3 3 2 1 -0 0 1 1 1 1 0 0 0 0 0 -0 -0 -0
2 2 2 2 2 3 3 2 1 1 1 2 4 6 7 6 5 4 5 5 4 4 4 5 4 2 2 2 2 1 1 0 0 1 1 1 1 1 0 -0 -0 -0 -0 -0 0
3 2 2 1 1 2 2 1 1 1 1 1 3 5 6 7 6 5 4 3 2 2 3 4 3 2 2 1 1 1 1 0 1 1 2 1 1 1 0 -0 -1 -1 -0 0 1
2 2 1 1 1 1 1 1 1 1 1 1 1 3 5 7 6 5 4 3 2 2 2 2 2 2 2 1 1 1 1 1 1 2 2 2 1 0 0 -0 -0 -0 -0 0 1
1 1 1 1 0 0 1 1 1 1 1 1 1 2 4 6 7 6 5 3 2 2 1 2 2 2 2 1 1 1 1 1 2 2 2 2 1 1 0 0 -0 -0 0 0 0
1 1 0 0 0 0 0 0 1 1 0 0 1 2 3 5 6 6 6 5 3 2 1 2 2 2 2 1 1 1 1 1 2 2 2 2 2 1 0 0 -0 0 0 0 0
1 0 0 0 0 0 0 0 0 0 0 0 1 1 2 4 5 6 7 6 5 2 1 2 3 2 2 1 1 1 0 1 1 2 2 2 2 1 0 -0 -0 0 1 1 0